Torna al catalogo

ATLAS D DEB

AttivoLEO
NORAD 2329·DEBRIS·🇺🇸 United States

Lanciato Jul 14, 1966 da Vandenberg Space Force Base

Loading…

Prossimi Passaggi (prossime 24 ore)

TLE

AggiornatoSource: Space-Track

Epoca: Sep 14, 2026, 15:11 UTC

1 02329U 66063D   26257.63323591  .00000742  00000-0  36334-3 0  9996
2 02329 144.2865 189.0161 0022946 146.4144  22.3958 13.92722364 34657

Traccia ATLAS D DEB in tempo reale con AllMySat

Download on the App Store